Weather observations for the past three days for
Beaufort County Airport
Imperial (Metric)
Date Time (edt) Wind (mph) Vis. (mi.) Weather Sky Cond. Temperature (ºF) Relative Humidity Wind Chill (°F) Heat Index (°F) Pressure Precipitation (in)
Air Dwpt 6 hour altimeter (in) sea level (mb) 1 hr 3 hr 6 hr
Max. Min.
12 13:15 SE 3 7.00 Thunderstorm Light Rain SCT019 SCT029 BKN034 78.8 75.2 89% 82 30.04 0.0
12 12:55 SE 7 4.00 Thunderstorm Rain OVC019 80.6 73.4 79% 85 30.05 0.0
12 12:35 N 6 10.00 Thunderstorm in Vicinity SCT019 BKN029 BKN041 84.2 71.6 66% 90 30.04 0.0
12 12:15 NW 6 10.00 Partly Cloudy SCT017 SCT031 SCT041 86 71.6 62% 92 30.04 0.0
12 11:55 NW 3 10.00 Partly Cloudy SCT017 SCT110 84.2 71.6 66% 90 30.04 0.0
12 11:35 Calm 10.00 Partly Cloudy SCT100 84.2 71.6 66% 90 30.04 0.0
12 11:15 NW 5 10.00 Partly Cloudy SCT025 SCT055 SCT100 82.4 73.4 74% 88 30.04 0.0
12 10:55 NW 5 10.00 Mostly Cloudy SCT015 SCT023 BKN090 82.4 73.4 74% 88 30.04 0.0
12 10:35 NW 3 10.00 Mostly Cloudy SCT013 BKN055 BKN090 82.4 73.4 74% 88 30.03 0.0
12 10:15 Calm 10.00 Mostly Cloudy SCT028 SCT055 BKN100 82.4 71.6 70% 87 30.03 0.0
12 09:55 Calm 10.00 Partly Cloudy SCT048 SCT085 SCT100 80.6 71.6 74% 85 30.03 0.0
12 09:35 Calm 10.00 Mostly Cloudy BKN085 80.6 71.6 74% 85 30.02 0.0
12 09:15 NE 5 10.00 Mostly Cloudy BKN085 80.6 71.6 74% 85 30.02 0.0
12 08:55 NE 6 10.00 Partly Cloudy SCT060 SCT085 80.6 71.6 74% 85 30.01 0.0
12 08:35 N 6 10.00 Fair CLR 80.6 71.6 74% 85 30 0.0
12 08:15 NE 6 10.00 Partly Cloudy SCT014 80.6 71.6 74% 85 30 0.0
12 07:55 NE 7 10.00 Mostly Cloudy SCT009 BKN014 78.8 71.6 79% 82 30 0.0 0.01
12 07:35 NE 5 10.00 Partly Cloudy SCT009 SCT014 78.8 73.4 84% 82 29.99 0.0
12 07:15 NE 3 10.00 Partly Cloudy SCT011 SCT120 78.8 71.6 79% 82 29.98 0.0
12 06:55 NE 5 10.00 Partly Cloudy SCT011 SCT120 77 71.6 83% 78 29.97 0.0
12 06:35 NE 5 10.00 Fair CLR 77 71.6 83% 78 29.96 0.0
12 06:15 N 7 10.00 Fair CLR 78.8 71.6 79% 82 29.94 0.0
12 05:55 N 3 10.00 Fair CLR 78.8 71.6 79% 82 29.95 0.0
12 05:35 N 6 10.00 Partly Cloudy SCT095 78.8 69.8 74% 81 29.95 0.0
12 05:15 N 6 10.00 Mostly Cloudy BKN085 78.8 68 70% 81 29.95 0.0
12 04:55 N 7 10.00 Mostly Cloudy SCT080 BKN085 78.8 68 70% 81 29.95 0.0
12 04:35 N 5 10.00 Partly Cloudy SCT010 SCT090 78.8 68 70% 81 29.95 0.0
12 04:15 N 3 10.00 Mostly Cloudy SCT010 BKN014 BKN020 80.6 64.4 58% 82 29.95 0.0
12 03:55 NW 5 10.00 Overcast OVC014 78.8 68 70% 81 29.95 0.0
12 03:35 Calm 10.00 Thunderstorm SCT014 BKN022 BKN070 78.8 68 70% 81 29.96 0.0
12 03:15 Calm 10.00 Thunderstorm in Vicinity BKN012 BKN090 78.8 69.8 74% 81 29.96 0.0
12 02:55 S 3 10.00 Overcast BKN012 BKN016 OVC090 78.8 71.6 79% 82 29.95 0.0
12 02:35 Calm 10.00 Overcast BKN012 BKN018 OVC100 78.8 73.4 84% 82 29.96 0.0
12 02:15 Calm 7.00 Light Rain BKN012 BKN024 BKN080 78.8 75.2 89% 82 29.96 0.0
12 01:55 E 5 10.00 Partly Cloudy SCT080 80.6 69.8 70% 84 29.97 0.0
12 01:35 NE 9 10.00 Partly Cloudy SCT090 80.6 68 66% 83 29.96 0.0
12 01:15 NE 7 10.00 Partly Cloudy SCT055 SCT080 80.6 68 66% 83 29.97 0.0
12 00:55 NE 10 10.00 Mostly Cloudy SCT055 BKN080 80.6 66.2 62% 83 29.97 0.0
12 00:35 NE 12 10.00 Partly Cloudy SCT080 80.6 66.2 62% 83 29.96 0.0
12 00:15 NE 10 10.00 Fair CLR 80.6 66.2 62% 83 29.96 0.0
11 23:55 NE 7 10.00 Fair CLR 80.6 68 66% 83 29.96 0.0
11 23:35 NE 7 10.00 Fair CLR 80.6 68 66% 83 29.95 0.0
11 23:15 N 3 10.00 Fair CLR 80.6 64.4 58% 82 29.94 0.0
11 22:55 N 5 10.00 Fair CLR 82.4 60.8 48% 83 29.93 0.0
11 22:35 Calm 10.00 Fair CLR 80.6 60.8 51% 81 29.93 0.0
11 22:15 N 3 10.00 Fair CLR 80.6 62.6 54% 82 29.94 0.0
11 21:55 Calm 10.00 Fair CLR 80.6 62.6 54% 82 29.94 0.0 0.01
11 21:35 Calm 10.00 Fair CLR 80.6 60.8 51% 81 29.93 0.0
11 21:15 Calm 10.00 Fair CLR 84.2 59 43% 84 29.93 0.0
11 20:55 S 3 10.00 Fair CLR 82.4 60.8 48% 83 29.93 0.0
11 20:35 S 3 10.00 Fair CLR 84.2 60.8 45% 84 29.94 0.0
11 20:15 Calm 10.00 Fair CLR 86 60.8 43% 86 29.93 0.0
11 19:55 S 3 10.00 Fair CLR 86 59 40% 85 29.93 0.0
11 19:35 SW 3 10.00 Fair CLR 87.8 59 38% 87 29.93 0.0
11 19:15 S 5 10.00 Fair CLR 87.8 57.2 35% 87 29.91 0.0
11 18:55 S 5 10.00 Fair CLR 89.6 57.2 33% 88 29.91 0.0
11 18:35 S 6 10.00 Fair CLR 89.6 55.4 31% 88 29.9 0.0
11 18:15 SW 6 10.00 Fair CLR 89.6 55.4 31% 88 29.9 0.0
11 17:55 S 8 10.00 Partly Cloudy SCT050 89.6 57.2 33% 88 29.9 0.0
11 17:35 Calm 10.00 Mostly Cloudy BKN050 89.6 55.4 31% 88 29.91 0.0
11 17:15 S 5 10.00 Mostly Cloudy BKN055 89.6 55.4 31% 88 29.91 0.0
11 16:55 Calm 10.00 Fair CLR 89.6 55.4 31% 88 29.91 0.0
11 16:35 S 5 10.00 Partly Cloudy SCT050 89.6 55.4 31% 88 29.91 0.0
11 16:15 S 5 10.00 Mostly Cloudy BKN050 89.6 55.4 31% 88 29.91 0.0
11 15:55 Calm 10.00 Fair CLR 89.6 57.2 33% 88 29.92 0.0 0.01
11 15:35 Calm 10.00 Fair CLR 89.6 55.4 31% 88 29.92 0.0
11 15:15 Calm 10.00 Fair CLR 89.6 55.4 31% 88 29.93 0.0
11 14:55 NE 3 10.00 Fair CLR 89.6 55.4 31% 88 29.93 0.0
11 14:35 NE 5 10.00 Fair CLR 89.6 55.4 31% 88 29.93 0.0
11 14:15 NE 5 10.00 Fair CLR 89.6 55.4 31% 88 29.93 0.0
11 13:55 E 5 7.00 Fair CLR 89.6 55.4 31% 88 29.92 0.0
11 13:35 Calm 10.00 Fair CLR 87.8 55.4 33% 86 29.93 0.0
11 13:15 NE 3 10.00 Fair CLR 87.8 57.2 35% 87 29.93 0.0
11 12:55 Calm 10.00 Fair CLR 86 55.4 35% 85 29.93 0.0 0.01
11 12:35 Calm 10.00 Fair CLR 86 55.4 35% 85 29.93 0.0 0.01
11 12:15 NW 5 10.00 Fair CLR 86 59 40% 85 29.94 0.0
11 11:55 N 3 10.00 Fair CLR 86 60.8 43% 86 29.94 0.0
11 11:35 NE 3 10.00 Fair CLR 86 60.8 43% 86 29.94 0.0
11 11:15 N 3 10.00 Fair CLR 84.2 59 43% 84 29.94 0.0
11 10:55 NE 3 10.00 Fair CLR 84.2 59 43% 84 29.94 0.0
11 10:35 Calm 10.00 Fair CLR 82.4 59 45% 82 29.93 0.0
11 10:15 N 3 10.00 Fair CLR 82.4 59 45% 82 29.93 0.0
11 09:55 NE 5 10.00 Fair CLR 82.4 59 45% 82 29.93 0.0 0.01
11 09:35 NW 6 10.00 Fair CLR 82.4 59 45% 82 29.93 0.0 0.01
11 09:15 NW 6 10.00 Fair CLR 80.6 59 48% 81 29.93 0.0 0.01
11 08:55 NW 6 10.00 Fair CLR 80.6 59 48% 81 29.93 0.0
11 08:35 NW 7 10.00 Fair CLR 78.8 59 51% 80 29.93 0.0
11 08:15 NW 7 10.00 Fair CLR 78.8 59 51% 80 29.93 0.0
11 07:55 NW 7 10.00 Fair CLR 78.8 59 51% 80 29.93 0.0
11 07:35 NW 8 10.00 Fair CLR 77 59 54% 79 29.92 0.0
11 07:15 NW 6 10.00 Fair CLR 77 59 54% 79 29.92 0.0
11 06:55 W 3 10.00 Fair CLR 75.2 57.2 54% 78 29.91 0.0
11 06:35 Calm 10.00 Fair CLR 75.2 57.2 54% 78 29.91 0.0
11 06:15 Calm 10.00 Fair CLR 73.4 62.6 69% 29.9 0.0
11 05:55 Calm 10.00 Fair CLR 75.2 62.6 65% 77 29.9 0.0 0.01
11 05:35 W 6 10.00 Fair CLR 77 60.8 57% 79 29.9 0.0 0.01
11 05:15 W 6 10.00 Fair CLR 77 62.6 61% 79 29.89 0.0
11 04:55 NW 5 10.00 Fair CLR 77 62.6 61% 79 29.89 0.0
11 04:35 W 5 10.00 Fair CLR 78.8 60.8 54% 80 29.89 0.0
11 04:15 NW 7 10.00 Fair CLR 78.8 60.8 54% 80 29.89 0.0
11 03:55 NW 6 10.00 Fair CLR 78.8 60.8 54% 80 29.89 0.0
11 03:35 NW 6 10.00 Fair CLR 78.8 60.8 54% 80 29.89 0.0
11 03:15 NW 7 10.00 Fair CLR 80.6 60.8 51% 81 29.89 0.0
11 02:55 NW 7 10.00 Fair CLR 80.6 60.8 51% 81 29.89 0.0
11 02:35 NW 9 10.00 Fair CLR 80.6 62.6 54% 82 29.89 0.0
11 02:15 NW 8 10.00 Fair CLR 80.6 62.6 54% 82 29.89 0.0
11 01:55 NW 8 10.00 Fair CLR 80.6 64.4 58% 82 29.89 0.0 0.01
11 01:35 W 9 10.00 Fair CLR 80.6 68 66% 83 29.9 0.0 0.01
11 01:15 W 9 10.00 Fair CLR 80.6 68 66% 83 29.9 0.0
11 00:55 W 10 10.00 Fair CLR 82.4 68 62% 85 29.89 0.0
11 00:35 W 10 10.00 Fair CLR 82.4 69.8 66% 86 29.89 0.0
11 00:15 W 12 10.00 Fair CLR 82.4 69.8 66% 86 29.89 0.0
10 23:55 W 9 10.00 Fair CLR 82.4 69.8 66% 86 29.89 0.0
10 23:35 W 9 10.00 Fair CLR 82.4 68 62% 85 29.89 0.0
10 23:15 W 7 10.00 Fair CLR 84.2 68 58% 87 29.89 0.0
10 22:55 W 6 10.00 Partly Cloudy SCT045 SCT050 84.2 69.8 62% 88 29.89 0.0 0.01
10 22:35 SW 5 10.00 Partly Cloudy SCT045 SCT050 82.4 71.6 70% 87 29.89 0.0
10 22:15 SW 5 10.00 Fair CLR 82.4 69.8 66% 86 29.89 0.0
10 21:55 W 3 10.00 Fair CLR 84.2 69.8 62% 88 29.88 0.0
10 21:35 Calm 10.00 Fair CLR 82.4 69.8 66% 86 29.88 0.0
10 21:15 Calm 10.00 Fair CLR 86 69.8 59% 91 29.88 0.0
10 20:55 SW 3 10.00 Fair CLR 86 68 55% 89 29.88 0.0
10 20:35 W 3 10.00 Fair CLR 87.8 68 52% 91 29.88 0.0
10 20:15 W 5 10.00 Fair CLR 87.8 68 52% 91 29.88 0.0
10 19:55 W 5 10.00 Fair CLR 89.6 68 49% 93 29.88 0.0
10 19:35 W 7 10.00 Fair CLR 89.6 68 49% 93 29.88 0.0
10 19:15 W 7 10.00 Fair CLR 89.6 68 49% 93 29.88 0.0
10 18:55 W 13 10.00 Fair CLR 89.6 68 49% 93 29.88 0.0 0.01
10 18:35 SW 9 10.00 Fair CLR 89.6 68 49% 93 29.87 0.0 0.01
10 18:15 W 10 10.00 Fair CLR 91.4 68 46% 96 29.88 0.0 0.01
10 17:55 SW 7 10.00 Mostly Cloudy SCT044 BKN050 89.6 68 49% 93 29.87 0.0
10 17:35 SW 6 10.00 Mostly Cloudy BKN042 BKN050 89.6 69.8 52% 95 29.87 0.0
10 17:15 SW 7 10.00 Partly Cloudy SCT044 SCT050 SCT065 89.6 68 49% 93 29.87 0.0
10 16:55 SW 7 10.00 Mostly Cloudy SCT042 BKN055 BKN065 91.4 68 46% 96 29.87 0.0 0.01
10 16:35 W 9 10.00 Partly Cloudy SCT060 91.4 68 46% 96 29.88 0.0 0.01
10 16:15 W 7 10.00 Fair CLR 91.4 66.2 44% 94 29.87 0.0
10 15:55 W 8 10.00 Partly Cloudy SCT055 91.4 68 46% 96 29.88 0.0 0.01
10 15:35 W 5 10.00 Partly Cloudy SCT048 SCT050 SCT110 91.4 64.4 41% 93 29.88 0.0 0.01
10 15:15 SW 6 10.00 Partly Cloudy SCT048 SCT050 91.4 64.4 41% 93 29.88 0.0
10 14:55 W 5 10.00 Partly Cloudy SCT041 SCT048 SCT050 93.2 66.2 41% 96 29.89 0.0 0.01
10 14:35 W 7 10.00 Mostly Cloudy SCT041 BKN050 91.4 66.2 44% 94 29.9 0.0
10 14:15 W 5 10.00 Partly Cloudy SCT039 SCT047 SCT055 91.4 68 46% 96 29.9 0.0
10 13:55 W 9 10.00 Partly Cloudy SCT041 SCT047 91.4 68 46% 96 29.9 0.0 0.01
10 13:35 W 7 1.75 Mostly Cloudy with Haze SCT039 BKN045 BKN050 91.4 68 46% 96 29.91 0.0
10 13:15 W 8 10.00 Mostly Cloudy SCT033 BKN042 BKN050 91.4 68 46% 96 29.92 0.0
10 12:55 W 7 10.00 Mostly Cloudy BKN033 89.6 68 49% 93 29.93 0.0 0.01
10 12:35 NW 9 10.00 Partly Cloudy SCT031 SCT038 89.6 68 49% 93 29.93 0.0 0.01
10 12:15 W 8 10.00 Partly Cloudy SCT031 SCT038 89.6 69.8 52% 95 29.92 0.0
10 11:55 NW 10 10.00 Fair CLR 89.6 69.8 52% 95 29.93 0.0
10 11:35 NW 9 10.00 Fair CLR 87.8 69.8 55% 93 29.93 0.0
10 11:15 NW 7 10.00 Partly Cloudy SCT020 SCT026 87.8 69.8 55% 93 29.93 0.0
10 10:55 W 8 10.00 Partly Cloudy SCT020 SCT026 86 71.6 62% 92 29.93 0.0 0.01
10 10:35 W 13 10.00 Partly Cloudy SCT018 86 71.6 62% 92 29.93 0.0
10 10:15 W 9 10.00 Partly Cloudy SCT016 86 71.6 62% 92 29.93 0.0
10 09:55 W 7 10.00 Partly Cloudy SCT016 86 71.6 62% 92 29.94 0.0 0.01
10 09:35 W 12 10.00 Fair CLR 82.4 71.6 70% 87 29.94 0.0 0.01
10 09:15 W 7 10.00 Partly Cloudy SCT012 82.4 71.6 70% 87 29.93 0.0 0.01
10 08:55 W 9 G 17 10.00 Fair CLR 82.4 71.6 70% 87 29.93 0.0
10 08:35 W 10 10.00 Fair CLR 80.6 71.6 74% 85 29.94 0.0
10 08:15 W 9 10.00 Fair CLR 80.6 73.4 79% 85 29.94 0.0
10 07:55 W 6 10.00 Fair CLR 78.8 73.4 84% 82 29.93 0.0 0.01
10 07:35 W 7 10.00 Fair CLR 78.8 73.4 84% 82 29.93 0.0 0.01
10 07:15 W 5 10.00 Fair CLR 77 73.4 89% 78 29.93 0.0 0.01
10 06:55 W 8 10.00 Fair CLR 77 73.4 89% 78 29.93 0.0
10 06:35 W 6 10.00 Fair CLR 77 73.4 89% 78 29.93 0.0
10 06:15 W 7 10.00 Fair CLR 77 73.4 89% 78 29.92 0.0
10 05:55 W 6 10.00 Fair CLR 77 73.4 89% 78 29.92 0.0 0.01
10 05:35 W 6 10.00 Fair CLR 77 73.4 89% 78 29.92 0.0 0.01
10 05:15 W 7 10.00 Fair CLR 77 73.4 89% 78 29.91 0.0
10 04:55 W 6 10.00 Fair CLR 77 73.4 89% 78 29.91 0.0
10 04:35 W 7 10.00 Partly Cloudy SCT065 SCT080 77 73.4 89% 78 29.91 0.0
10 04:15 W 7 10.00 Partly Cloudy SCT065 78.8 73.4 84% 82 29.91 0.0
10 03:55 W 7 10.00 Fair CLR 77 73.4 89% 78 29.91 0.0 0.01
10 03:35 W 8 10.00 Fair CLR 77 73.4 89% 78 29.91 0.0
10 03:15 W 6 10.00 Fair CLR 77 73.4 89% 78 29.91 0.0
10 02:55 W 6 10.00 Fair CLR 78.8 73.4 84% 82 29.92 0.0 0.01
10 02:35 W 7 10.00 Fair CLR 78.8 73.4 84% 82 29.92 0.0
10 02:15 W 6 10.00 Fair CLR 78.8 73.4 84% 82 29.92 0.0
10 01:55 SW 6 10.00 Fair CLR 78.8 75.2 89% 82 29.92 0.0 0.01
10 01:35 W 5 10.00 Fair CLR 78.8 77 94% 83 29.93 0.0 0.01
10 01:15 SW 5 10.00 Fair CLR 78.8 77 94% 83 29.93 0.0
10 00:55 SW 5 10.00 Fair CLR 78.8 77 94% 83 29.93 0.0 0.01
10 00:35 SW 5 10.00 Fair CLR 78.8 77 94% 83 29.93 0.0 0.01
10 00:15 SW 5 10.00 Fair CLR 78.8 77 94% 83 29.93 0.0
09 23:55 S 5 10.00 Fair CLR 77 75.2 94% 78 29.94 0.0 0.02
09 23:35 W 7 10.00 Light Rain CLR 77 73.4 89% 78 29.94 0.0 0.01
09 23:15 S 5 10.00 Light Rain BKN120 77 73.4 89% 78 29.95 0.0 0.01
09 22:55 SW 5 10.00 Light Rain BKN120 75.2 73.4 94% 74 29.95 0.0 0.04
09 22:35 SW 7 7.00 Thunderstorm Light Rain SCT024 SCT031 SCT041 75.2 71.6 89% 75 29.96 0.0 0.03
09 22:15 SW 5 3.00 Thunderstorm Heavy Rain SCT010 BKN016 OVC030 75.2 71.6 89% 75 29.98 0.0 0.02
09 21:55 W 20 G 24 1.25 Thunderstorm Heavy Rain SCT009 OVC014 75.2 71.6 89% 75 30 0.0 0.05
09 21:35 W 13 G 25 7.00 Thunderstorm Light Rain SCT009 BKN014 OVC042 77 73.4 89% 78 29.98 0.0 0.03
09 21:15 Calm 4.00 Thunderstorm Fog/Mist SCT020 SCT027 BKN042 77 73.4 89% 78 29.97 0.0
09 20:55 SE 5 5.00 Thunderstorm Fog/Mist SCT028 SCT080 77 73.4 89% 78 29.96 0.0 0.01
09 20:35 Calm 3.00 Thunderstorm Fog/Mist CLR 77 73.4 89% 78 29.94 0.0 0.01
09 20:15 E 6 10.00 Thunderstorm Rain SCT033 SCT046 BKN110 77 71.6 83% 78 29.94 0.0 0.01
09 19:55 E 12 G 16 7.00 Thunderstorm Rain SCT013 BKN040 OVC048 77 62.6 61% 79 29.95 0.0
09 19:35 NE 14 G 22 10.00 Thunderstorm SCT013 SCT018 BKN024 78.8 64.4 61% 81 29.96 0.0
09 19:15 S 7 10.00 Fair CLR 86 68 55% 89 29.94 0.0
09 18:55 S 6 10.00 Thunderstorm in Vicinity CLR 86 68 55% 89 29.93 0.0
09 18:35 S 7 10.00 Thunderstorm in Vicinity CLR 86 68 55% 89 29.93 0.0
09 18:15 S 6 10.00 Fair CLR 87.8 64.4 46% 89 29.92 0.0
09 17:55 S 7 10.00 Fair CLR 89.6 62.6 41% 90 29.9 0.0
09 17:35 S 8 10.00 Fair CLR 89.6 57.2 33% 88 29.91 0.0
09 17:15 SW 8 10.00 Fair CLR 89.6 53.6 29% 87 29.91 0.0
09 16:55 S 8 10.00 Fair CLR 91.4 53.6 28% 89 29.91 0.0
09 16:35 S 10 10.00 Partly Cloudy SCT041 SCT055 SCT070 91.4 53.6 28% 89 29.92 0.0
09 16:15 S 7 10.00 Mostly Cloudy SCT041 SCT048 BKN050 91.4 53.6 28% 89 29.92 0.0
09 15:55 W 7 10.00 Mostly Cloudy SCT043 BKN050 93.2 50 23% 90 29.93 0.0
09 15:35 S 8 10.00 Mostly Cloudy BKN042 BKN049 91.4 53.6 28% 89 29.93 0.0
09 15:15 SW 9 10.00 Overcast BKN042 OVC050 91.4 53.6 28% 89 29.93 0.0
09 14:55 S 7 10.00 Mostly Cloudy BKN040 BKN045 BKN050 91.4 53.6 28% 89 29.94 0.0
09 14:35 S 3 10.00 Partly Cloudy SCT038 89.6 53.6 29% 87 29.95 0.0
09 14:15 Calm 10.00 Partly Cloudy SCT038 89.6 53.6 29% 87 29.96 0.0
09 13:55 W 7 10.00 Partly Cloudy SCT036 89.6 53.6 29% 87 29.97 0.0
Date Time (edt) Wind (mph) Vis. (mi.) Weather Sky Cond. Air Dwpt Max. Min. Relative Humidity Wind Chill (°F) Heat Index (°F) altimeter (in) sea level (mb) 1 hr 3 hr 6 hr
6 hour
Temperature (ºF) Pressure Precipitation (in)